Norwood, MA

11:42 AM EDT on June 28, 2017 (GMT -0400)
Norwood Memorial

Weather History for KOWD - May, 2013

Change the Weather History Date:

Wednesday, May 8, 2013

  Actual Average Record
Temperature  
Mean Temperature 60 °F -  
Max Temperature 75 °F 65 °F 89 °F (2000)
Min Temperature 48 °F 42 °F 28 °F (2001)
Degree Days  
Heating Degree Days 4    
Growing Degree Days 10 (Base 50)    
Moisture  
Dew Point 56 °F    
Average Humidity 87    
Maximum Humidity 100    
Minimum Humidity 55    
Precipitation  
Precipitation 0.20 in - - ()
Sea Level Pressure  
Sea Level Pressure 30.13 in    
Wind  
Wind Speed 3 mph (SE)    
Max Wind Speed 18 mph    
Max Gust Speed 25 mph    
Visibility 6 miles    
Events Fog , Rain    
Averages and records for this station are not official NWS values.
T = Trace of Precipitation, MM = Missing Value Source: NWS Daily Summary

Daily Weather History Graph

Daily Weather History Graph

Search for Another Location

Airport or City:

Trip Planner

Search our weather history database for the weather conditions in past years. The results will help you decide how hot, cold, wet, or windy it might be!

Date:

Astronomy

May. 08, 2013 Rise Set
Actual Time 5:31 AM EDT 7:51 PM EDT
Civil Twilight 4:59 AM EDT 8:23 PM EDT
Nautical Twilight 4:21 AM EDT 9:02 PM EDT
Astronomical Twilight 3:38 AM EDT 9:45 PM EDT
Moon 4:38 AM EDT (5/8) 6:46 PM EDT (5/8)
Length of Visible Light 15h 23m
Length of Day
14h 20m
Waning Crescent, 2% of the Moon is Illuminated
May 8
Waning Crescent
May 9
New
May 18
First Quarter
May 25
Full
May 31
Last Quarter

Hourly Weather History & Observations

Time (EDT) Temp. Dew Point Humidity Pressure Visibility Wind Dir Wind Speed Gust Speed Precip Events Conditions
12:53 AM 57.0 °F 55.0 °F 93% 30.17 in 10.0 mi SSE 4.6 mph - N/A   Clear
1:41 AM 51.8 °F 51.8 °F 100% 30.16 in 1.5 mi Calm Calm - N/A   Clear
1:43 AM 51.8 °F 51.8 °F 100% 30.16 in 0.8 mi Calm Calm - N/A   Mist
1:53 AM 51.1 °F 51.1 °F 100% 30.16 in 0.5 mi Calm Calm - N/A Fog Fog
2:28 AM 51.8 °F 51.8 °F 100% 30.15 in 1.2 mi Calm Calm - N/A   Partly Cloudy
2:33 AM 51.8 °F 51.8 °F 100% 30.15 in 4.0 mi Calm Calm - N/A   Partly Cloudy
2:43 AM 51.8 °F 51.8 °F 100% 30.15 in 1.0 mi Calm Calm - N/A   Mist
2:50 AM 51.8 °F 51.8 °F 100% 30.15 in 0.5 mi Calm Calm - N/A Fog Fog
2:53 AM 51.1 °F 51.1 °F 100% 30.15 in 0.5 mi Calm Calm - N/A Fog Fog
3:06 AM 51.8 °F 51.8 °F 100% 30.15 in 1.2 mi Calm Calm - N/A   Scattered Clouds
3:09 AM 51.8 °F 51.8 °F 100% 30.15 in 4.0 mi Calm Calm - N/A   Scattered Clouds
3:53 AM 51.1 °F 51.1 °F 100% 30.15 in 6.0 mi Calm Calm - N/A   Clear
4:36 AM 51.8 °F 50.0 °F 94% 30.15 in 2.5 mi Calm Calm - N/A   Partly Cloudy
4:46 AM 51.8 °F 51.8 °F 100% 30.15 in 5.0 mi Calm Calm - N/A   Scattered Clouds
4:50 AM 50.0 °F 50.0 °F 100% 30.15 in 2.0 mi Calm Calm - N/A   Mostly Cloudy
4:53 AM 50.0 °F 50.0 °F 100% 30.15 in 1.0 mi Calm Calm - N/A   Mist
5:04 AM 48.2 °F 48.2 °F 100% 30.15 in 3.0 mi Calm Calm - N/A   Mostly Cloudy
5:14 AM 50.0 °F 50.0 °F 100% 30.15 in 1.8 mi Calm Calm - N/A   Mostly Cloudy
5:24 AM 48.2 °F 48.2 °F 100% 30.15 in 0.8 mi Calm Calm - N/A   Mist
5:29 AM 50.0 °F 50.0 °F 100% 30.16 in 2.0 mi Calm Calm - N/A   Mostly Cloudy
5:36 AM 50.0 °F 50.0 °F 100% 30.16 in 0.8 mi Calm Calm - N/A   Mist
5:53 AM 48.9 °F 48.9 °F 100% 30.17 in 1.8 mi Calm Calm - N/A   Mostly Cloudy
5:55 AM 48.2 °F 48.2 °F 100% 30.17 in 3.0 mi Calm Calm - N/A   Mostly Cloudy
6:13 AM 50.0 °F 50.0 °F 100% 30.17 in 10.0 mi Calm Calm - N/A   Overcast
6:53 AM 55.9 °F 55.0 °F 97% 30.18 in 5.0 mi Calm Calm - N/A   Overcast
7:23 AM 57.2 °F 55.4 °F 94% 30.19 in 9.0 mi Calm Calm - N/A   Overcast
7:53 AM 60.1 °F 57.9 °F 93% 30.19 in 10.0 mi Calm Calm - N/A   Overcast
8:05 AM 60.8 °F 59.0 °F 94% 30.19 in 10.0 mi Calm Calm - N/A   Overcast
8:33 AM 66.2 °F 60.8 °F 83% 30.18 in 10.0 mi NE 3.5 mph - N/A   Mostly Cloudy
8:48 AM 66.2 °F 60.8 °F 83% 30.18 in 10.0 mi Calm Calm - N/A   Scattered Clouds
8:53 AM 66.9 °F 60.1 °F 79% 30.18 in 10.0 mi Variable 3.5 mph - N/A   Scattered Clouds
9:53 AM 72.0 °F 60.1 °F 66% 30.18 in 10.0 mi SE 12.7 mph - N/A   Partly Cloudy
10:04 AM 73.4 °F 60.8 °F 65% 30.18 in 10.0 mi SE 11.5 mph - N/A   Mostly Cloudy
10:53 AM 72.0 °F 60.1 °F 66% 30.18 in 10.0 mi ESE 10.4 mph 17.3 mph N/A   Mostly Cloudy
11:53 AM 73.9 °F 57.9 °F 57% 30.16 in 10.0 mi SE 18.4 mph 21.9 mph N/A   Mostly Cloudy
12:53 PM 73.0 °F 59.0 °F 61% 30.15 in 10.0 mi SE 17.3 mph 25.3 mph N/A   Mostly Cloudy
1:00 PM 73.4 °F 59.0 °F 61% 30.15 in 10.0 mi SSE 18.4 mph 25.3 mph N/A   Partly Cloudy
1:09 PM 73.4 °F 57.2 °F 57% 30.15 in 10.0 mi SSE 13.8 mph 19.6 mph N/A   Mostly Cloudy
1:53 PM 73.9 °F 57.0 °F 55% 30.14 in 10.0 mi SSE 9.2 mph 20.7 mph N/A   Overcast
2:01 PM 73.4 °F 57.2 °F 57% 30.13 in 10.0 mi SE 13.8 mph 20.7 mph N/A   Overcast
2:53 PM 71.1 °F 57.0 °F 61% 30.13 in 10.0 mi SSE 12.7 mph 23.0 mph N/A   Overcast
3:35 PM 71.6 °F 57.2 °F 60% 30.11 in 10.0 mi SSE 16.1 mph 24.2 mph N/A   Overcast
3:53 PM 71.1 °F 59.0 °F 66% 30.11 in 10.0 mi ESE 18.4 mph 24.2 mph N/A   Overcast
4:53 PM 68.0 °F 63.0 °F 84% 30.10 in 10.0 mi ESE 6.9 mph - 0.00 in   Overcast
5:20 PM 68.0 °F 62.6 °F 83% 30.10 in 10.0 mi ESE 8.1 mph 17.3 mph N/A   Overcast
5:53 PM 69.1 °F 60.1 °F 73% 30.09 in 10.0 mi SSE 8.1 mph 17.3 mph N/A   Overcast
6:27 PM 68.0 °F 59.0 °F 73% 30.08 in 10.0 mi SE 9.2 mph 17.3 mph N/A   Overcast
6:36 PM 68.0 °F 60.8 °F 78% 30.08 in 10.0 mi SE 6.9 mph - N/A   Overcast
6:53 PM 68.0 °F 60.1 °F 76% 30.08 in 10.0 mi Variable 5.8 mph - N/A   Overcast
7:00 PM 68.0 °F 60.8 °F 78% 30.08 in 10.0 mi SE 5.8 mph - N/A   Overcast
7:24 PM 66.2 °F 59.0 °F 78% 30.08 in 10.0 mi SE 9.2 mph - N/A   Overcast
7:53 PM 66.0 °F 60.1 °F 81% 30.07 in 10.0 mi ESE 8.1 mph - N/A   Overcast
8:53 PM 64.0 °F 60.1 °F 87% 30.07 in 10.0 mi ESE 5.8 mph - N/A   Overcast
9:53 PM 64.0 °F 60.1 °F 87% 30.07 in 10.0 mi ESE 4.6 mph - N/A   Overcast
10:53 PM 63.0 °F 61.0 °F 93% 30.06 in 10.0 mi SSE 4.6 mph - 0.02 in   Overcast
11:05 PM 62.6 °F 60.8 °F 94% 30.05 in 2.5 mi Calm Calm - 0.04 in Rain Heavy Rain
11:13 PM 62.6 °F 60.8 °F 94% 30.06 in 1.8 mi Variable 3.5 mph - 0.11 in Rain Rain
11:15 PM 62.6 °F 60.8 °F 94% 30.06 in 2.0 mi SSE 4.6 mph - 0.11 in Rain Light Rain
11:23 PM 62.6 °F 60.8 °F 94% 30.05 in 2.0 mi Calm Calm - 0.18 in Rain Light Rain
11:31 PM 62.6 °F 62.6 °F 100% 30.05 in 8.0 mi Calm Calm - 0.18 in Rain Light Rain
11:39 PM 62.6 °F 62.6 °F 100% 30.05 in 10.0 mi Calm Calm - 0.18 in Rain Light Rain
11:53 PM 62.1 °F 61.0 °F 96% 30.04 in 10.0 mi Calm Calm - 0.18 in   Overcast